Regional Weather Roundup
Issued by NWS

Home | Current Version | Previous Version | Text Only | Print | Product List | Glossary Off
Versions: 1 2 3 4 5 6 7 8 9 10 11 12 13 14 15 16 17 18 19 20 21 22 23 24 25 26 27 28 29 30 31 32 33 34 35 36 37 38 39 40 41 42 43 44 45 46 47 48 49 50

000
ASUS43 KFSD 040610
RWRSD

WEATHER ROUNDUP FOR SOUTH DAKOTA
NATIONAL WEATHER SERVICE SIOUX FALLS SD
100 AM CDT SAT JUL 04 2015

NOTE: "FAIR" INDICATES FEW OR NO CLOUDS BELOW 12,000 FEET WITH NO
SIGNIFICANT WEATHER AND/OR OBSTRUCTIONS TO VISIBILITY.


SDZ001>005-009-010-012>017-040700-
NORTHWEST AND NORTH CENTRAL SOUTH DAKOTA

CITY           SKY/WX    TMP DP  RH WIND       PRES   REMARKS
BUFFALO          N/A     65  58  78 SE12      29.86F
FAITH            N/A     65  60  84 SE12      29.93F
MOBRIDGE       CLEAR     70  69  97 SE7       29.89F FOG
$$

SDZ012>016-024>037-041>051-057-063-072>074-040700-
SOUTHWEST AND SOUTH CENTRAL SOUTH DAKOTA

CITY           SKY/WX    TMP DP  RH WIND       PRES   REMARKS
RAPID CTY ARPT PTCLDY    63  60  90 S3        29.96F
PIERRE         CLEAR     68  63  84 SE7       29.92S
CUSTER         PTCLDY    57  53  86 NW3       30.10F
ELLSWORTH AFB  PTCLDY    69  60  72 S6        29.94F
PHILIP         PTCLDY    65  62  90 E6        29.93F FOG
PINE RIDGE     CLEAR     71  56  58 S12       29.97F
SPEARFISH      FAIR      66  57  72 CALM      29.97F
WINNER         FAIR      71  61  70 S10       29.96S
$$

SDZ004>011-016>023-039-040-040700-
NORTHEAST SOUTH DAKOTA

CITY           SKY/WX    TMP DP  RH WIND       PRES   REMARKS
ABERDEEN       CLOUDY    65  63  93 S7        29.92S FOG
WATERTOWN      CLOUDY    69  64  84 CALM      29.95S HAZE
BROOKINGS      CLEAR     66  63  88 SW5       29.98R
SISSETON         N/A     64  62  93 SW5       29.92S
$$

SDZ017-020-022-023-036>040-048>070-040700-
SOUTHEAST SOUTH DAKOTA

CITY           SKY/WX    TMP DP  RH WIND       PRES   REMARKS
SIOUX FALLS    CLEAR     69  62  78 SW6       29.97R
HURON          CLEAR     69  65  86 S7        29.93S
CHAMBERLAIN    CLEAR     65  64  95 S3        29.96R
MITCHELL       CLEAR     70  64  81 S6        29.96R
YANKTON        CLEAR     66  61  82 SW5       29.95R
$$

ABBREVIATIONS USED IN REMARKS
   TC - TEMPERATURE IN CELSIUS
  WCI - WIND CHILL INDEX
   HX - HEAT INDEX
  VSB - VISIBILITY



USA.gov is the U.S. government's official web portal to all federal, state and local government web resources and services.